Probability
23 23 24 23 20 17 15 16 16 13 11 10 7 5 4 5 6 7 9 11 13 12 9 6 4 4 6 7 8 7 7 7 8 8 7 7 6 5 4 4 6 7 7
24 24 25 25 22 20 19 18 18 15 13 11 10 9 7 7 7 7 7 9 12 13 11 8 5 5 6 7 8 7 7 7 8 8 8 6 6 5 4 4 5 5 5
26 25 26 27 25 24 24 22 19 17 14 12 12 11 9 9 8 7 6 7 9 10 10 9 8 7 7 7 7 7 7 7 7 8 8 8 7 5 4 4 5 4 4
25 25 26 26 24 23 24 21 18 16 14 12 11 10 9 8 8 7 7 7 7 6 6 7 10 12 11 8 7 7 7 6 7 7 8 9 8 6 4 3 4 4 3
24 23 23 23 22 20 19 18 16 17 17 14 11 9 8 8 7 6 6 7 6 5 5 6 9 14 15 12 10 8 7 7 7 7 8 9 9 8 6 3 3 3 2
23 22 21 21 21 18 16 15 16 17 18 16 11 8 8 8 9 8 7 7 7 6 5 5 8 12 16 17 14 9 7 7 9 9 9 10 10 9 6 3 1 1 1
22 21 20 20 20 18 15 14 15 16 16 15 11 8 7 7 9 9 9 9 7 5 4 5 7 10 13 15 13 9 8 8 9 10 11 11 11 9 6 3 2 1 1
23 20 18 18 18 17 15 14 14 14 13 12 10 7 6 6 7 8 10 10 7 5 4 4 5 8 9 9 8 7 7 7 8 9 10 11 11 9 6 4 3 3 2
25 22 18 16 16 16 14 14 14 13 11 10 9 8 8 7 6 6 7 7 6 5 4 4 4 5 6 6 4 4 4 5 6 7 8 9 9 9 8 6 5 4 4
24 22 19 17 15 14 12 13 13 12 11 10 9 9 9 9 7 5 4 4 4 4 4 3 3 3 5 7 6 3 2 3 5 6 7 6 7 9 10 9 8 6 5
20 19 17 17 14 12 12 11 11 11 11 10 9 9 9 8 8 6 3 2 2 3 3 3 3 3 4 6 7 4 1 1 2 3 4 3 4 7 9 10 9 7 6
14 14 14 15 15 14 13 11 9 10 10 10 9 8 6 6 6 5 3 3 3 4 4 4 5 6 4 4 4 3 1 0 0 1 1 1 1 3 5 7 7 7 7
10 10 11 12 14 14 12 11 10 10 10 10 9 7 5 4 4 4 3 4 5 5 5 5 7 7 4 2 1 1 1 0 0 0 0 0 0 0 1 2 4 5 5
8 8 7 8 9 9 8 10 11 11 11 11 8 6 5 5 4 4 4 4 5 5 5 6 8 7 5 2 1 2 3 1 0 0 0 0 0 0 0 0 1 1 2
7 6 5 4 4 4 5 8 10 10 11 10 8 8 8 7 6 5 4 5 5 4 4 5 6 6 5 3 1 3 4 2 0 0 0 0 0 0 0 0 0 0 0
6 4 3 2 2 1 2 5 6 7 8 8 7 8 8 7 6 5 4 5 5 3 2 2 2 3 4 2 2 3 5 3 1 0 0 0 0 0 0 0 0 0 0
5 3 2 2 2 1 1 2 3 4 6 5 4 4 4 4 5 4 3 3 3 3 1 1 0 1 3 3 3 5 5 4 1 0 0 0 0 0 0 0 0 0 0
4 2 2 3 2 1 0 1 2 3 4 5 3 2 2 2 3 3 2 2 3 2 1 0 0 1 4 5 5 5 5 3 1 0 0 0 0 0 0 0 0 0 0
3 2 3 3 1 0 0 1 1 1 3 4 3 2 2 3 2 2 2 2 3 2 1 1 1 2 3 5 5 4 3 2 1 0 0 0 0 0 0 0 0 0 0
3 3 3 3 1 0 0 0 0 1 2 3 4 3 3 2 2 2 2 2 2 1 1 2 2 3 3 3 4 3 2 1 1 0 0 0 0 0 0 0 0 0 0
3 3 3 3 2 1 0 0 0 1 2 3 4 4 2 1 1 2 1 1 1 1 2 3 3 3 3 2 2 2 1 0 0 0 0 0 0 0 1 1 0 0 0
3 3 3 3 3 2 1 0 0 1 2 3 4 3 1 0 0 0 0 0 0 1 2 3 3 3 3 2 1 1 0 0 0 1 0 0 1 1 2 2 1 0 0
4 4 4 4 4 3 1 0 0 1 2 2 2 1 1 1 1 0 0 0 0 1 1 2 3 3 3 2 1 0 0 0 0 0 0 0 1 2 2 2 1 0 0
6 6 6 6 5 3 1 0 0 0 1 1 1 0 2 4 3 1 0 1 1 1 0 1 1 2 3 2 1 1 1 1 0 0 0 0 0 1 1 1 0 0 0
7 7 6 6 6 4 1 0 0 0 0 0 1 1 2 3 3 1 1 2 2 2 1 1 0 1 2 1 1 1 2 2 1 0 0 0 0 0 0 0 0 0 0
5 5 5 6 7 5 2 0 0 0 0 1 2 2 1 1 1 1 2 3 3 3 2 2 1 0 1 0 0 1 3 2 1 0 0 0 0 0 0 0 0 0 0
Wind_Speed
2 2 2 2 2 2 2 2 2 2 2 3 3 2 1 1 0 1 4 8 8 7 7 6 5 5 5 5 5 5 5 5 5 6 6 7 7 7 7 7 7 8 8
2 2 2 1 1 1 1 2 2 2 2 2 3 2 2 1 1 1 3 5 8 8 8 7 7 6 6 6 6 6 6 6 6 5 5 6 6 7 8 8 8 8 8
2 1 1 1 1 1 2 1 2 1 2 2 2 2 2 2 2 2 2 3 4 8 9 8 8 8 7 7 7 7 7 7 7 7 6 6 6 7 7 7 7 8 8
2 1 1 0 1 1 1 1 0 1 1 1 1 2 2 2 2 3 3 3 3 4 7 10 10 9 9 9 9 8 8 8 8 8 8 8 7 7 7 8 8 8 8
1 1 1 0 1 1 0 0 0 1 1 1 2 2 2 2 2 3 3 3 3 3 4 7 10 10 10 10 10 9 9 8 8 8 8 8 8 8 8 8 8 8 8
1 1 1 1 1 0 0 0 1 1 1 1 3 1 1 1 2 2 3 3 3 3 3 3 5 7 10 10 10 9 9 8 8 8 8 8 8 9 9 8 8 8 8
1 1 1 1 1 1 0 1 1 1 1 1 1 1 2 3 3 2 2 2 2 2 2 2 3 3 4 9 9 10 10 9 9 8 8 8 8 8 8 9 9 10 10
1 1 2 1 1 1 1 0 1 1 1 0 1 1 1 1 1 3 2 3 2 2 2 3 2 2 2 2 4 8 9 9 9 9 8 7 7 8 8 8 9 10 11
1 1 1 1 1 1 1 2 1 2 1 1 0 0 1 1 2 2 2 2 2 2 2 2 2 2 2 2 2 6 7 7 8 8 8 7 7 8 9 10 10 10 11
1 2 1 1 1 1 1 1 1 1 1 1 1 1 1 1 1 2 2 1 2 2 2 2 2 2 2 2 2 4 7 7 7 7 8 8 8 9 10 11 11 11 12
1 1 1 1 1 1 1 1 1 1 1 1 1 1 2 2 2 1 2 2 2 2 2 3 2 2 2 3 3 4 6 8 8 8 8 8 9 10 11 11 12 12 13
1 1 1 1 1 1 1 1 1 1 1 1 2 2 2 2 2 2 2 3 2 2 3 2 2 3 3 2 3 5 6 8 8 8 9 8 9 10 11 12 12 12 13
1 1 1 1 2 1 1 1 1 2 1 2 2 2 2 2 2 2 2 3 3 3 3 2 2 1 2 1 2 4 6 7 8 9 9 10 10 10 11 11 12 12 13
0 1 1 1 2 1 1 1 1 2 1 1 3 2 2 2 2 2 2 2 3 3 3 3 2 1 1 1 2 3 2 5 6 8 9 10 10 10 11 11 11 11 12
0 0 1 1 1 1 1 1 1 2 1 1 2 2 2 2 2 2 2 2 3 4 4 3 2 2 1 1 2 2 2 5 6 7 9 10 11 11 11 11 11 11 11
0 0 1 1 1 1 1 2 2 2 2 2 2 2 2 2 3 3 3 3 3 3 4 3 3 3 3 3 3 2 3 5 7 8 8 9 10 11 11 12 12 11 11
1 1 1 1 1 1 1 2 2 2 2 2 2 2 2 3 2 2 2 3 3 3 4 4 3 3 3 3 3 3 3 3 4 7 8 9 10 11 12 12 12 12 11
1 1 1 1 1 1 1 1 1 1 1 1 2 2 3 2 2 2 2 3 3 3 3 5 4 4 4 3 3 4 4 4 4 6 8 9 10 11 12 12 11 11 11
1 0 1 1 0 0 0 0 0 1 1 2 2 2 3 2 2 2 3 3 3 3 3 4 5 4 3 3 3 4 5 4 5 5 7 8 9 10 10 11 11 11 11
1 1 1 0 0 1 1 1 1 1 2 2 2 2 2 2 2 2 3 3 3 3 4 4 4 4 3 3 3 3 4 3 4 5 5 5 7 8 8 9 10 10 11
0 1 0 0 0 1 2 2 2 2 2 3 3 2 2 1 1 2 2 3 3 3 4 3 4 4 3 3 3 3 4 4 4 3 3 4 3 3 4 7 8 9 10
1 1 1 1 1 1 2 2 2 2 3 3 3 3 2 0 1 2 3 4 4 4 4 4 4 4 4 4 3 4 4 4 4 3 3 4 3 3 3 3 6 9 10
1 1 1 1 1 1 1 2 3 3 3 3 3 2 3 3 1 2 3 4 4 4 5 4 4 5 4 4 4 5 4 5 5 4 4 5 3 3 3 3 4 5 7
1 1 1 1 0 1 1 2 3 3 3 3 3 2 1 1 2 2 3 3 3 4 4 3 3 5 5 4 4 4 5 5 5 4 3 4 3 3 3 2 4 6 7
1 1 1 1 0 1 2 2 3 3 3 3 2 1 1 1 2 3 3 3 4 4 5 4 6 7 8 8 6 3 4 4 4 4 2 2 3 3 3 2 3 5 5
1 1 1 1 1 0 1 1 2 3 3 2 1 1 2 1 1 2 2 3 4 4 5 5 5 6 6 6 6 4 4 4 4 4 2 2 3 3 3 3 2 2 2
Wind_Direction
186 187 177 183 199 195 196 223 213 221 235 226 224 227 236 209 148 124 140 162 168 170 177 187 198 212 221 226 228 229 232 233 231 227 226 227 227 224 224 221 221 219 220
178 195 182 190 216 194 199 227 243 221 226 242 238 223 214 199 191 165 154 169 181 184 190 197 205 217 224 228 230 232 235 234 234 231 228 229 228 226 227 225 225 223 220
183 203 188 176 235 234 208 210 254 246 230 241 239 226 219 205 191 206 192 188 189 197 202 205 210 219 226 232 237 239 239 235 234 234 234 231 228 229 228 229 228 227 222
183 203 163 149 277 276 213 191 215 281 277 270 255 241 221 202 203 213 219 212 205 200 203 210 213 220 225 231 238 240 240 237 237 237 236 233 231 228 228 227 226 224 223
154 169 154 161 261 265 308 275 73 281 276 279 255 232 225 204 213 221 209 221 220 210 196 202 213 221 224 227 233 235 237 237 235 235 237 236 233 230 228 229 230 227 225
157 224 162 149 257 256 305 307 342 306 281 272 284 272 256 229 219 213 220 227 223 226 215 195 204 219 222 226 231 233 233 235 234 235 237 235 234 231 228 229 231 231 230
170 155 103 166 174 157 270 336 336 282 266 270 291 290 262 232 222 207 212 230 239 243 221 198 201 209 211 222 228 230 234 237 235 233 234 235 233 232 230 230 231 231 230
167 170 156 197 158 170 190 236 258 266 271 229 277 287 273 248 259 240 208 209 225 238 232 241 209 206 220 187 218 224 232 237 237 236 236 236 234 232 231 233 235 234 233
145 149 163 185 200 211 196 198 226 251 274 286 228 276 295 294 289 241 242 233 217 223 236 241 233 218 220 209 194 217 224 230 236 238 240 240 239 236 237 238 238 237 236
172 165 175 191 205 233 212 219 199 262 261 281 276 244 249 270 276 299 279 256 247 239 235 250 263 233 228 217 204 202 201 206 222 237 243 246 245 244 246 246 244 241 239
177 177 172 192 207 225 226 261 290 259 282 277 287 281 276 273 247 260 289 288 278 256 233 224 235 237 234 226 216 196 189 201 214 229 242 250 252 252 251 251 249 246 243
163 180 179 184 210 219 216 232 259 240 254 293 302 306 312 301 300 289 284 283 285 281 262 236 226 231 227 221 229 198 194 202 213 224 234 244 253 256 255 254 252 250 247
177 178 192 205 219 218 201 227 244 243 248 283 281 286 294 290 294 293 296 294 295 291 289 267 241 236 246 211 205 197 206 207 216 224 230 236 244 249 254 256 253 252 250
51 141 211 226 232 226 232 239 248 248 257 270 275 275 278 285 290 288 283 294 299 298 293 284 276 245 249 222 204 218 215 222 228 231 232 234 239 245 250 253 253 252 249
335 98 193 222 244 238 236 245 238 250 260 257 267 273 267 280 286 288 281 265 268 288 290 291 302 301 293 277 218 233 225 238 246 242 238 236 238 242 245 248 250 248 245
332 293 243 224 236 235 218 233 246 242 243 249 251 262 269 274 283 294 298 293 282 275 282 291 293 287 303 306 280 276 261 254 251 248 243 240 241 242 242 245 246 245 242
232 254 248 239 233 227 226 235 259 258 262 267 275 278 272 272 287 306 303 301 296 296 292 297 298 303 299 292 301 288 274 259 256 250 243 240 240 241 241 241 241 240 238
213 248 230 245 250 223 241 258 269 287 291 290 290 296 297 306 313 308 308 298 298 297 293 299 303 302 305 302 296 281 288 287 281 263 248 242 240 239 240 241 239 237 236
156 248 260 238 240 249 314 351 349 327 308 291 285 295 306 322 324 318 305 309 306 311 300 287 289 291 290 297 300 299 298 293 290 282 261 253 248 245 241 237 234 234 234
158 212 242 281 14 53 23 17 355 314 303 300 289 284 292 300 313 310 307 312 308 302 292 289 293 298 297 303 307 307 307 299 299 301 294 279 258 246 249 241 233 230 229
184 168 241 283 11 69 40 24 344 311 301 290 297 305 296 325 321 298 309 314 307 300 301 299 297 301 306 317 317 303 301 301 295 296 299 294 289 271 255 242 234 226 224
46 16 4 9 9 35 55 29 331 302 291 296 305 301 294 299 312 286 288 288 282 284 295 296 293 297 300 303 306 306 305 309 305 302 305 296 284 277 266 238 217 215 217
44 17 2 0 53 49 14 341 319 297 281 283 292 300 304 320 332 316 290 283 288 279 261 268 285 288 292 298 306 306 306 303 293 293 295 291 288 287 283 278 228 218 219
28 6 318 324 34 344 294 294 303 283 273 268 265 263 282 333 3 344 308 304 296 302 283 266 269 278 286 291 290 290 287 289 284 281 284 287 294 300 311 304 251 233 228
304 282 259 261 272 253 260 274 284 285 274 270 261 291 19 62 31 345 310 308 309 306 300 293 279 273 274 273 272 288 295 296 298 298 295 292 300 307 304 293 276 252 247
266 278 297 285 259 168 193 300 288 286 291 296 287 119 90 85 328 324 300 301 301 304 311 308 294 282 267 262 251 239 261 288 299 303 308 313 310 315 308 296 301 284 269